STARLINK-3072 (49153 NORAD) Tracking and Keplerian Element Data

This shows tracking and keplerian element data for the satellite.

Feedback or suggestion? Click here.




ElementValue
Catalog49153
NameSTARLINK-3072
Epoch Orbit696
Epoch Day300.83334491
Epoch Year2021
RAAN3.9953
Inclination70.0012
Eccentricity0.0003711
Argument of Perigee291.0226
Mean Anonmoly62.763
Mean Motion15.69760478
Decay Rate-0.00069047
L11 49153U 21082Z 21300.83334491 -.00069047 00000-0 -58106-3 0 9997
L22 49153 70.0012 3.9953 0003711 291.0226 62.7630 15.69760478 6965

Live tracking and technical data element details for STARLINK-3072 (NORAD 49153). STARLINK-3072 can be tracked NOW for your location showing map with azimuth and elevation plus other details from your city location.

Track the satellite on the map from your city or location and see movement details for azimuth, elevation, latitude, longitude, range, height, and movement on the map or in text.







IsCatalogInMostPopularTable: catalog: 49153, numindb: 8
Update: records affected: 1



GetName: 49153 STARLINK-3072

Hit Count: updated at: Thu, 28 Oct 2021 12:17:57 GMT